Find Local Weather

World > North America > United States > Arizona

Green Valley, Arizona Regional Weather

Lat: 31.85N, Lon: 111.01W
Wx Zone: AZZ504
Warning FLW WEATHER ALERT - EXCESSIVE HEAT WARNING (More Info. Click Here) Warning
Feedback
Expires:201807231400;;926882
ASUS45 KPSR 231310
RWRAZ 

ARIZONA HOURLY REGIONAL WEATHER ROUNDUP
NATIONAL WEATHER SERVICE PHOENIX AZ
600 AM MST MON JUL 23 2018

NOTE: FAIR INDICATES FEW OR NO CLOUDS BELOW 12,000 FEET WITH NO
SIGNIFICANT WEATHER AND/OR OBSTRUCTIONS TO VISIBILITY.


AZZ503-504-507>509-231400-
SOUTHEAST ARIZONA
  
CITY           SKY/WX    TMP DP  RH WIND       PRES   REMARKS
TUCSON         CLEAR     81  54  39 S3        30.01R                  
RYAN FIELD     CLEAR     79  55  44 NW8       30.00                   
NOGALES        PTCLDY    70  58  65 E6        30.10R                  
SIERRA VISTA   CLEAR     76  50  40 SW7       30.18                   
DOUGLAS        CLEAR     70  53  54 N7        30.12R                  
SAFFORD        PTCLDY    81  48  31 N8        30.00R                  
$$


SKY/WX - Weather  TMP - Temperature  DP - Dewpoint  RH - Relative Humidity
WIND - Wind Direction/Speed PRES - Barometric Pressure